AVUM DEB (ADAPTOR)

Satellite information

Favourite Embed

Satellite Type and Status

DEBRISIN ORBIT

Key statistics

Satellite AVUM DEB (ADAPTOR) at a glance.

Uptime

4604

Days in orbit

Revolutions

≈ 14.6

Per day

Orbit

SSO

Sun Synchronous Orbit

Inclination

98.8

Latest

Satellite identification and parameters

Extended collection of information and parameters for AVUM DEB (ADAPTOR).

Object identification

Identified? True

Debris? True

Object name: AVUM DEB (ADAPTOR)

International designator: 2013-021D

Object number (NORAD): 39162

Object ID (CCSDS): 39162

Country: EUROPEAN SPACE AGENCY (ESA)

Current information (Y/N): Y

RCS size: LARGE

Orbital parameters

Period: 98.853 minutes

Inclination: 98.7807 deg

SMA: 7081.977 km

Apoapsis: 762.589 km

Periapsis: 645.095 km

RAAN: 308.1824 deg

Eccentricy: 0.0082953

Argument of periapsis: 223.6534 deg

Mean anomaly: 135.8081 deg

Mean motion: 14.56702855 rev/day

Mean motion (dot): 0.00002567 rev/day2

B* drag term: 0.00056012256 1/REarth

Two-line elements (TLE)

Creation date: Dec. 14, 2025, 3:07 a.m.

Reference frame: TEME

Reference center: EARTH

Epoch: Dec. 13, 2025, 2:33 p.m. UTC

TLE line 0: 0 AVUM DEB (ADAPTOR)

TLE line 1: 1 39162U 13021D 25347.60638505 .00002567 00000-0 56012-3 0 9999

TLE line 2: 2 39162 98.7807 308.1824 0082953 223.6534 135.8081 14.56702855666489

Live tracking on map

Real-time ground track for satellite AVUM DEB (ADAPTOR).

In-orbit conjunctions

A list of the most updated potential collisions computed for object AVUM DEB (ADAPTOR).

Target Orbit TCA Probability of collision Miss distance Type
IRIDIUM 33 DEB LEO 2025-10-11 18:52:41 0.0001415056 312.0 (m) DEBRIS

Associated space launch

Proba-V maps land cover and monitors vegetation growth across the globe. Launched along with Proba-V are the first Earth observation satellite for Vietnam, VNREDSat 1A, and the first Estonian satellite ESTCube-1. ESTCube-1 is also the first satellite in the world to attempt the use of an electric solar wind sail.

AVUM DEB (ADAPTOR) was lifted into orbit during the mission ‘Vega | Proba-V, VNREDSat 1A, ESTCube-1’, on board a Vega space rocket.

The launch took place on May 7, 2013, 2:06 a.m. from Ariane Launch Area 1 (ELV).

For more information about the launch, click the button.

Launch to space Vega | Proba-V, VNREDSat 1A, ESTCube-1
Vega | Proba-V, VNREDSat 1A, ESTCube-1

Agency: N/A

Status: Launch Successful

Launch date: May 7, 2013, 2:06 a.m. UTC

Rocket: Vega

Launch pad: Ariane Launch Area 1 (ELV)

Location: Guiana Space Centre, French Guiana

...

Latest news about this satellite

News about space launch
Target of European debris removal mission hit by other debris

A payload adapter that is the target of a European debris cleanup mission may have itself been damaged by a debris impact.


Newsletter sign-up

Weekly statistics, charts and insights to help you stay on top of the space industry.